{"data":{"norad_id":87405,"epoch":"2026-09-18T13:35:42.675360Z","epoch_age_seconds":185219,"freshness":"STALE","line1":"1 87405U          26261.56646615  .00001342  00000+0  93514-3 0  9994","line2":"2 87405  82.7520 199.1869 0057445 246.9486 112.5618 13.97249466650227","mean_motion":13.97249466,"eccentricity":0.0057445,"inclination_deg":82.752,"raan_deg":199.1869,"arg_perigee_deg":246.9486,"mean_anomaly_deg":112.5618,"bstar":0.00093514,"rev_number":65022,"period_min":103.0596207077,"perigee_km":861.50696123147,"apogee_km":945.16379739742,"semimajor_km":7281.4723793144,"source":"CELESTRAK","updated_at":"2026-09-20T09:00:32.474333Z"}}